Location: Brunsen
(51.8651°N, 9.8610°E)
Time: 15:31:48
(UTC+00:00)

Cosmos 1455 - Pass Details

Date: 23 May 2024
Orbit: 445 x 459 km, 82.5° (Epoch: 23 June)

Event Time Altitude Azimuth Distance (km) Brightness Sun altitude
Rises 02:00:22 0° 332° (NNW) 2,461 6.0 -9.2°
Maximum altitude 02:04:57 13° 275° (W) 1,416 4.1 -8.8°
Drops below altitude 10° 02:06:34 10° 247° (WSW) 1,581 4.1 -8.6°
Enters shadow 02:06:42 10° 245° (WSW) 1,608 4.1 -8.6°
